Regional Weather Roundup
Issued by NWS Grand Forks, ND

Home | Current Version | Previous Version | Graphics & Text | Print | Product List | Glossary On
Versions: 1 2 3 4 5 6 7 8 9 10 11 12 13 14 15 16 17 18 19 20 21 22 23 24 25 26 27 28 29 30 31 32 33 34 35 36 37 38 39 40 41 42 43 44 45 46 47 48 49 50
439
ASUS43 KFGF 120010
RWRFGF
PRAIRIE TO PINES  WEATHER ROUNDUP
NATIONAL WEATHER SERVICE EASTERN NORTH DAKOTA/GRAND FORKS ND
600 PM CST THU FEB 11 2016

 **SATELLITE DATA USED TO AUGMENT SKY COVER AT AUTOMATED STATIONS**
 *****  WEATHER ACROSS EASTERN NORTH DAKOTA  *****

CITY           SKY/WX    TMP DP  RH WIND       PRES   REMARKS
GRAND FORKS    CLOUDY    14   8  77 N8        30.26R WCI   3
6HR MIN TEMP:  12; 6HR MAX TEMP:  17; 6HR PCP: TRACE;

GRAND FRKS AFB FLURRIES  13   7  77 N7        30.26R WCI   3
DEVILS LAKE    FLURRIES   5   2  87 N6        30.24R WCI  -6
6HR MIN TEMP:   4; 6HR MAX TEMP:  12; 6HR PCP: TRACE;

FARGO          CLOUDY    14   3  61 NW6       30.25R WCI   5
WAHPETON ARPT  CLOUDY    14   9  79 NW5       30.24S WCI   6
$$

 ***** WEATHER ACROSS CENTRAL AND WESTERN NORTH DAKOTA  *****

CITY           SKY/WX    TMP DP  RH WIND       PRES   REMARKS
BISMARCK       CLOUDY    24  15  68 N6        30.22R WCI  17
6HR MIN TEMP:  24; 6HR MAX TEMP:  28; 6HR PCP:  0.03;

MINOT          CLOUDY    21  11  65 N7        30.24R WCI  12
6HR MIN TEMP:  19; 6HR MAX TEMP:  22; 6HR PCP: TRACE;

JAMESTOWN      CLOUDY    14   9  80 N12       30.20R WCI   0
6HR MIN TEMP:  12; 6HR MAX TEMP:  16;

MINOT AFB      CLOUDY    18  13  80 N2        30.24R
GARRISON         N/A     19  14  81 N10       30.22R WCI   7
WILLISTON      CLOUDY    23  16  74 N9        30.26R WCI  13
6HR MIN TEMP:  23; 6HR MAX TEMP:  27; 6HR PCP:  0.02;

DICKINSON      CLOUDY    23  18  81 N6        30.17R WCI  16
6HR MIN TEMP:  22; 6HR MAX TEMP:  25; 6HR PCP: TRACE;

HETTINGER      CLOUDY    25  20  81 N8        30.17R WCI  16
6HR MIN TEMP:  25; 6HR MAX TEMP:  32; 6HR PCP:  0.06;

$$

 *****  OTHER AIRPORT OBSERVATIONS IN OUR AREA  *****

CITY           SKY/WX    TMP DP  RH WIND       PRES   REMARKS
WALHALLA       FAIR      10   7  85 N10       30.28R WCI  -3
GRAFTON AIRPOR CLOUDY    10   5  79 N13       30.29R WCI  -5
VALLEY CITY AR CLOUDY    12  10  92 N9        30.23R WCI   0
CANDO          NOT AVBL
CAVALIER APRT  CLOUDY    10   5  79 N13       30.28R WCI  -5
GWINNER        CLOUDY    16  12  86 NE5       30.21S WCI   9
ROLLA          FLURRIES   9   5  85 N8        30.22R WCI  -4
 ***** THE ABOVE OBSERVATIONS ARE NON NWS ARE NOT QUALITY
       CONTROLLED AND MAY MIS-REPORT RAIN FOR SNOW...
$$

  *****  WEATHER ACROSS NORTHERN MINNESOTA  *****

CITY           SKY/WX    TMP DP  RH WIND       PRES   REMARKS
FLAG ISLAND    PTCLDY     9   1  72 NW15      30.16R WCI  -8
WARROAD        CLOUDY    10   3  72 W9        30.18S WCI  -2
ROSEAU         CLOUDY    10   5  79 W7        30.20R WCI   0
HALLOCK        CLOUDY    10   3  72 NW12      30.26R WCI  -4
THF RVR FALLS  CLOUDY    10   1  67 NW8       30.23R WCI  -1
6HR MIN TEMP:   9; 6HR MAX TEMP:  12;

BAUDETTE       CLOUDY    10   0  63 W8        30.14S WCI  -2
6HR MIN TEMP:   8; 6HR MAX TEMP:  13;

WASKISH        CLOUDY     9   3  78 W9        30.16S WCI  -5
CROOKSTON      FLURRIES  12   9  85 N8        30.26R WCI   1
STEPHEN NDAWN    N/A     10   7  85 NW10        N/A  WCI  -3
GREENBUSH NDAW   N/A      9   5  85 NW10        N/A  WCI  -6
$$
  *****  WEATHER ACROSS CENTRAL AND WEST MINNESOTA  *****

CITY           SKY/WX    TMP DP  RH WIND       PRES   REMARKS
FOSSTON        CLOUDY     9   1  72 NW8       30.21R WCI  -4
BEMIDJI        CLOUDY    10  -1  59 W10       30.17R WCI  -4
PARK RAPIDS    CLOUDY    13   0  56 NW8       30.16R WCI   2
6HR MIN TEMP:   8; 6HR MAX TEMP:  14;

ELBOW LAKE     LGT SNOW  13  10  90 NW5       30.21S VSB 3/4 WCI   5
6HR MIN TEMP:  12; 6HR MAX TEMP:  14;

WADENA         FLURRIES  12   7  79 W5        30.18R WCI   4
DETROIT LAKES  FLURRIES  14   7  73 NW7       30.20S WCI   4
MOORHEAD       MIX PCPN  12   5  73 N7        30.26R WCI   2
FERGUS FALLS   LGT SNOW  12   9  85 NW3       30.25R
MORRIS MN      CLOUDY    16   9  73 CALM      30.20R
STAPLES        CLOUDY    12   7  79 W6        30.19R WCI   3
$$
  *****  WEATHER ELSEWHERE ACROSS MINNESOTA  *****

CITY           SKY/WX    TMP DP  RH WIND       PRES   REMARKS
DULUTH         CLOUDY    11  -5  48 W13       30.11S WCI  -4
6HR MIN TEMP:   7; 6HR MAX TEMP:  12;

INTRNTL FALLS  CLOUDY    10  -2  58 W8        30.12S WCI  -2
6HR MIN TEMP:   8; 6HR MAX TEMP:  13;

ELY            CLOUDY     7  -2  66 W6        30.09R WCI  -3
CLOQUET        CLOUDY    12  -4  48 W8        30.14S WCI   1
WHEATON        FLURRIES  16  12  86 CALM      30.25R
BRAINERD       CLOUDY    13   3  64 W7        30.19R WCI   3
6HR MIN TEMP:   8; 6HR MAX TEMP:  14;

HIBBING        CLOUDY    10  -7  46 W5        30.12S WCI   2
6HR MIN TEMP:   5; 6HR MAX TEMP:  10; 6HR PCP: TRACE;

ALEXANDRIA     LGT SNOW  13   8  81 W5        30.19R WCI   5
6HR MIN TEMP:  12; 6HR MAX TEMP:  14; 6HR PCP: TRACE;

SAINT CLOUD    LGT SNOW  13   9  84 SW5       30.21S FOG     WCI   5
6HR MIN TEMP:  10; 6HR MAX TEMP:  15; 6HR PCP:  0.01;

MINNEAPOLIS    FLURRIES  15   3  59 SW7       30.24S WCI   5
6HR MIN TEMP:  13; 6HR MAX TEMP:  17; 6HR PCP: TRACE;

$$

  *****  WEATHER ACROSS SOUTH DAKOTA  *****

CITY           SKY/WX    TMP DP  RH WIND       PRES   REMARKS
SIOUX FALLS    LGT SNOW  18  13  80 S3        30.17S
6HR MIN TEMP:  16; 6HR MAX TEMP:  18; 6HR PCP:  0.06;

BROOKINGS      LGT SNOW  17  13  84 S5        30.16R FOG     WCI  10
WATERTOWN      LGT SNOW  18  13  80 CALM      30.14R
6HR MIN TEMP:  15; 6HR MAX TEMP:  19; 6HR PCP:  0.02;

HURON          LGT SNOW  23  19  85 CALM      30.18R FOG
6HR MIN TEMP:  21; 6HR MAX TEMP:  24; 6HR PCP:  0.05;

SISSETON         N/A     17  12  80 NE3       30.21R
ABERDEEN       CLEAR     19  15  84 N5        30.20R WCI  12
6HR MIN TEMP:  19; 6HR MAX TEMP:  24; 6HR PCP:  0.03;

MITCHELL       LGT SNOW  21  17  84 E6        30.19R FOG     WCI  13
PIERRE         CLOUDY    28  25  88 E6        30.14R WCI  22
6HR MIN TEMP:  28; 6HR MAX TEMP:  31; 6HR PCP: TRACE;

MOBRIDGE       CLOUDY    28  24  85 N6        30.15R WCI  22
RAPID CITY     CLOUDY    46  31  55 N18G29    30.10R
6HR MIN TEMP:  41; 6HR MAX TEMP:  59;

$$

  *****  SOME WEATHER IN NEARBY STATES *****

CITY           SKY/WX    TMP DP  RH WIND       PRES   REMARKS
GLASGOW MT     CLOUDY    31  24  75 NE3       30.23R
6HR MIN TEMP:  29; 6HR MAX TEMP:  33; 6HR PCP: TRACE;

GREAT FALLS MT CLOUDY    47  28  47 NE9       30.22R
6HR MIN TEMP:  47; 6HR MAX TEMP:  58;

CHEYENNE WY    CLOUDY    49  24  37 NW14G32   30.19R
6HR MIN TEMP:  49; 6HR MAX TEMP:  54;

SCOTTSBLUFF NE CLOUDY    51  27  39 N12       30.15R
6HR MIN TEMP:  51; 6HR MAX TEMP:  60;

OMAHA NE       CLOUDY    27  20  75 E6        30.18F WCI  20
6HR MIN TEMP:  19; 6HR MAX TEMP:  28; 6HR PCP: TRACE;

DES MOINES IA  LGT SNOW  19  11  70 E5        30.26R WCI  12
6HR MIN TEMP:  16; 6HR MAX TEMP:  21; 6HR PCP: TRACE;

DAVENPORT IA   CLOUDY    21   4  47 W3        30.28S
6HR MIN TEMP:  18; 6HR MAX TEMP:  23;

CHICAGO IL     PTCLDY    18   3  52 W6        30.27S WCI  10
6HR MIN TEMP:  16; 6HR MAX TEMP:  21;

EAU CLAIRE WI  CLOUDY    15  -2  46 SW8       30.22S WCI   4
6HR MIN TEMP:   8; 6HR MAX TEMP:  15;

LA CROSSE WI   CLOUDY    16   1  51 S9        30.26S WCI   4
6HR MIN TEMP:  10; 6HR MAX TEMP:  21;

$$

  *****  SOME NATIONAL WEATHER *****

CITY           SKY/WX    TMP DP  RH WIND       PRES   REMARKS
LA GUARDIA NY  PTCLDY    23  -2  33 NW23G37   30.07R WCI   7
6HR MIN TEMP:  23; 6HR MAX TEMP:  27;

RALEIGH NC     CLEAR     34  10  37 CALM      30.22R
6HR MIN TEMP:  34; 6HR MAX TEMP:  41;

ATLANTA GA     PTCLDY    52  24  33 NW5       30.16R
6HR MIN TEMP:  48; 6HR MAX TEMP:  56;

NEW ORLEANS LA PTCLDY    69  50  50 W15       30.17R
6HR MIN TEMP:  69; 6HR MAX TEMP:  76;

OKLAHOMA CITY  PTCLDY    56  31  38 N7        30.13R
6HR MIN TEMP:  54; 6HR MAX TEMP:  63;

ALBUQUERQUE NM PTCLDY    65  13  13 NW9       30.26R
6HR MIN TEMP:  54; 6HR MAX TEMP:  67;

SALT LAKE CITY MOCLDY    32  27  81 NW6       30.43R HAZE
6HR MIN TEMP:  30; 6HR MAX TEMP:  34; 6HR PCP: TRACE;

LOS ANGELES CA MOSUNNY   71  42  35 W10       30.07R
6HR MIN TEMP:  71; 6HR MAX TEMP:  79;

BOISE ID       CLOUDY   C1F1C2F2C3F3C4F4C5F5C6F6C7F7C8F8C9F9CaFaCbFbCcFcCd!



USA.gov is the U.S. government's official web portal to all federal, state and local government web resources and services.